[[{"header":{"parameterUnit":"m.s-1","parameterCategory":1,"la1":30.2991,"la2":30.254,"lo1":-89.0895,"lo2":-89.0444,"dy":0.0017,"dx":0.0017,"nx":28,"ny":28,"refTime":"2023-04-08T21:00:00:Z","depth":0,"parameterNumber":2,"parameterNumberName":"U-component_of_WINDS"},"data":[0,0,0,0,0,0,0,0,0,0,0,0,0,0,0,0,0,0,0,0,0,0,0,0,0,0,0,0,0,0,0,0,0,0,0,0,0,0,0,0,0,0,0,0,0,0,0,0,0,0,0,0,0,0,0,0,0,0,-4.3242,-4.3243,0,-4.3305,-4.3306,-4.3307,-4.3224,-4.3221,-4.3218,-4.3215,-4.3282,-4.3287,-4.3291,0,0,0,0,0,0,0,0,0,0,0,0,0,-4.3052,-4.3056,-4.3242,-4.3243,-4.3244,-4.3305,-4.3306,-4.3307,-4.3225,-4.3221,-4.3217,-4.3214,-4.3281,-4.3286,-4.3291,0,0,0,0,0,0,0,0,0,0,0,0,0,-4.3127,-4.3057,-4.3242,-4.321,-4.3208,-4.3305,-4.3306,-4.3307,-4.3225,-4.3221,-4.3216,-4.3212,-4.3279,-4.3285,-4.3292,-4.3425,0,0,-4.3313,-4.3316,0,0,0,0,0,0,0,0,-4.3123,-4.3134,-4.3214,-4.3212,-4.321,-4.3252,-4.3263,-4.3347,-4.3226,-4.3219,-4.3215,-4.321,-4.3276,-4.3283,-4.3305,-4.3428,-4.3431,-4.3314,-4.3318,-4.3321,-4.3323,0,0,0,0,0,0,0,-4.3118,-4.3131,-4.3267,-4.3215,-4.3213,-4.3193,-4.3199,-4.3279,-4.3272,-4.3219,-4.3213,-4.3222,-4.3274,-4.3298,-4.3305,-4.3432,-4.3314,-4.332,-4.3324,-4.3327,-4.3668,-4.3673,0,0,0,0,0,0,-4.3116,-4.3127,-4.3265,-4.3269,-4.3154,-4.32,-4.3206,-4.3243,-4.3271,-4.3271,-4.3225,-4.3218,-4.3289,-4.3298,-4.3308,-4.3466,-4.3321,-4.3327,-4.3331,-4.3664,-4.367,-4.3675,0,0,0,0,0,0,-4.3112,-4.3129,-4.3263,-4.3197,-4.3212,-4.3208,-4.325,-4.3247,-4.3271,-4.3276,-4.3274,-4.3251,-4.3285,-4.3298,-4.3396,-4.3467,-4.333,-4.3337,-4.3658,-4.3665,-4.3672,-4.3783,0,0,0,0,0,0,-4.3107,-4.3128,-4.3178,-4.3198,-4.3216,-4.335,-4.3254,-4.3251,-4.3283,-4.3273,-4.3299,-4.33,-4.3283,-4.3387,-4.3403,-4.3474,-4.3342,-4.3651,-4.3661,-4.367,-4.3773,-4.3793,-4.381,0,0,0,0,0,-4.3101,-4.3207,-4.3181,-4.3198,-4.3278,-4.3354,-4.3364,-4.3343,-4.3289,-4.3339,-4.3342,-4.3299,-4.3456,-4.3397,-4.3415,-4.3489,-4.3647,-4.3658,-4.3669,-4.3765,-4.3789,-4.381,0,0,0,0,0,0,-4.3196,-4.3209,-4.318,-4.3296,-4.3325,-4.334,-4.3403,-4.3369,-4.3414,-4.3403,-4.3374,-4.3381,-4.3487,-4.3497,-4.3432,-4.362,-4.3543,-4.3558,-4.3609,-4.3633,-4.3651,-4.3647,-4.3348,0,0,0,0,0,-4.323,-4.329,-4.3299,-4.34,-4.3416,-4.3407,-4.344,-4.342,-4.3449,-4.3461,-4.3471,-4.3501,-4.3557,-4.3595,-4.3647,-4.3773,-4.3779,-4.3833,-4.3852,-4.3867,-4.3882,-4.3951,-4.3975,-4.3712,-4.3711,-4.3711,0,0,-4.3302,-4.3316,-4.3356,-4.342,-4.3439,-4.3504,-4.3418,-4.3489,-4.3537,-4.3472,-4.3566,-4.3574,-4.3606,-4.372,-4.377,-4.3732,-4.3955,-4.3882,-4.3894,-4.39,-4.3965,-4.399,-4.4012,-4.3719,-4.3718,-4.3717,0,0,-4.3466,-4.3482,-4.3569,-4.3591,-4.3622,-4.3615,-4.3636,-4.3657,-4.366,-4.3754,-4.3707,-4.3763,-4.386,-4.3885,-4.3911,-4.4085,-4.4047,-4.4102,-4.4201,-4.4269,-4.429,-4.4308,-4.4372,-4.4395,-4.4116,-4.4116,-4.4117,0,-4.3551,-4.3645,-4.3618,-4.3693,-4.3723,-4.3666,-4.3755,-4.3777,-4.3824,-4.3846,-4.3802,-4.3924,-4.3941,-4.4061,-4.4103,-4.4125,-4.4149,-4.41,-4.4289,-4.4307,-4.4324,-4.4385,-4.4408,-4.4123,-4.4122,-4.4122,-4.4121,0,-4.375,-4.3816,-4.3882,-4.3929,-4.3966,-4.4047,-4.4033,-4.4074,-4.4052,-4.405,-4.4147,-4.4166,-4.4221,-4.4248,-4.4226,-4.4365,-4.434,-4.4293,-4.4216,-4.4356,-4.4413,-4.4436,-4.4133,-4.413,-4.4128,-4.4127,0,0,-4.3977,-4.4007,-4.4032,-4.4053,-4.4083,-4.4134,-4.4213,-4.4266,-4.4303,-4.4337,-4.4404,-4.4487,-4.4444,-4.4473,-4.4454,-4.4513,-4.4652,-4.4459,-4.446,-4.4496,-4.4808,-4.4845,-4.4872,-4.4627,-4.4631,-4.4634,-4.4806,0,-4.4142,-4.4278,-4.4257,-4.4389,-4.4451,-4.4398,-4.4467,-4.4493,-4.4494,-4.4547,-4.4548,-4.4608,-4.4546,-4.4563,-4.4619,-4.4624,-4.4715,-4.4611,-4.469,-4.4693,-4.4686,-4.4901,-4.494,-4.5101,-4.4828,-4.4831,-4.4834,0,-4.4353,-4.4395,-4.4534,-4.4555,-4.458,-4.4642,-4.469,-4.4741,-4.477,-4.4767,-4.48,-4.477,-4.485,-4.477,-4.4881,-4.4811,-4.4842,-4.4849,-4.4854,-4.4863,-4.4774,-4.4917,-4.5152,-4.5177,-4.4868,-4.4866,-4.4863,0,-4.4507,-4.4598,-4.4693,-4.4712,-4.4739,-4.4784,-4.4798,-4.4822,-4.4856,-4.4898,-4.492,-4.4971,-4.5,-4.504,-4.5026,-4.4968,-4.5141,-4.5059,-4.5141,-4.5142,-4.5182,-4.518,-4.5427,-4.5199,-4.5198,-4.5198,-4.5197,0,-4.4695,-4.4783,-4.4762,-4.4821,-4.4918,-4.4892,-4.4989,-4.4996,-4.5018,-4.5078,-4.5035,-4.5092,-4.5068,-4.5125,-4.5113,-4.5208,-4.5221,-4.5221,-4.5218,-4.5227,-4.5227,-4.5248,-4.5237,-4.5204,-4.5203,-4.5202,-4.52,0,-4.4884,-4.4874,-4.4974,-4.4991,-4.4997,-4.5068,-4.5083,-4.5139,-4.5136,-4.5212,-4.5229,-4.5225,-4.5289,-4.5278,-4.5349,-4.5341,-4.546,-4.5442,-4.5451,-4.5447,-4.5531,-4.5524,-4.5802,-4.5838,-4.5585,-4.5587,-4.5589,0,-4.5006,-4.5072,-4.5096,-4.5133,-4.5149,-4.5209,-4.5243,-4.522,-4.5258,-4.5297,-4.5349,-4.5408,-4.5455,-4.556,-4.5564,-4.5619,-4.5602,-4.5696,-4.561,-4.5618,-4.5606,-4.5604,-4.5611,-4.5714,-4.5717,-4.5719,-4.5721,0,-4.5223,-4.5215,-4.5266,-4.5316,-4.5358,-4.5396,-4.543,-4.5463,-4.5443,-4.5488,-4.5553,-4.5589,-4.5661,-4.5722,-4.5773,-4.5787,-4.5752,-4.5747,-4.577,-4.578,-4.5784,-4.5785,-4.5499,-4.5742,-4.5739,-4.5738,-4.5737,-4.5736,-4.5384,-4.544,-4.5467,-4.5525,-4.5548,-4.5581,-4.5635,-4.5639,-4.5692,-4.5748,-4.5731,-4.5806,-4.5834,-4.5898,-4.5919,-4.5977,-4.5942,-4.5974,-4.5983,-4.5992,-4.6003,-4.5773,-4.5986,-4.5985,-4.5985,-4.5984,-4.5984,0,-4.5601,-4.5615,-4.5669,-4.5718,-4.5765,-4.5725,-4.5761,-4.5803,-4.5869,-4.5898,-4.5945,-4.602,-4.6078,-4.6087,-4.6143,-4.6188,-4.6174,-4.6204,-4.6202,-4.6206,-4.6029,-4.6005,-4.6215,-4.6215,-4.6215,-4.6215,-4.6215,-4.6215,-4.572,-4.5814,-4.5809,-4.5915,-4.5928,-4.6,-4.6024,-4.6055,-4.6078,-4.6164,-4.6212,-4.6217,-4.6239,-4.6296,-4.6349,-4.635,-4.6373,-4.6411,-4.6406,-4.6241,-4.6218,-4.6196,-4.6174,-4.6415,-4.6416,-4.6578,-4.6579,-4.6581]},{"header":{"parameterUnit":"m.s-1","parameterCategory":1,"la1":30.2991,"la2":30.254,"lo1":-89.0895,"lo2":-89.0444,"dy":0.0017,"dx":0.0017,"nx":28,"ny":28,"refTime":"2023-04-08T21:00:00:Z","depth":0,"parameterNumber":3,"parameterNumberName":"V-component_of_WINDS"},"data":[0,0,0,0,0,0,0,0,0,0,0,0,0,0,0,0,0,0,0,0,0,0,0,0,0,0,0,0,0,0,0,0,0,0,0,0,0,0,0,0,0,0,0,0,0,0,0,0,0,0,0,0,0,0,0,0,0,0,-3.4036,-3.4036,0,-3.4064,-3.4064,-3.4065,-3.4023,-3.4022,-3.402,-3.4019,-3.4048,-3.405,-3.4052,0,0,0,0,0,0,0,0,0,0,0,0,0,-3.3945,-3.3947,-3.4036,-3.4036,-3.4037,-3.4064,-3.4064,-3.4065,-3.4023,-3.4022,-3.402,-3.4018,-3.4047,-3.4049,-3.4052,0,0,0,0,0,0,0,0,0,0,0,0,0,-3.398,-3.3947,-3.4036,-3.4019,-3.4018,-3.4064,-3.4064,-3.4065,-3.4024,-3.4022,-3.4019,-3.4017,-3.4046,-3.4049,-3.4052,-3.4116,0,0,-3.4062,-3.4063,0,0,0,0,0,0,0,0,-3.3978,-3.3983,-3.4021,-3.4021,-3.4019,-3.4038,-3.4043,-3.4082,-3.4024,-3.4022,-3.4019,-3.4016,-3.4046,-3.4049,-3.4059,-3.4117,-3.4118,-3.4062,-3.4064,-3.4066,-3.4066,0,0,0,0,0,0,0,-3.3975,-3.3982,-3.4047,-3.4022,-3.4021,-3.401,-3.4012,-3.405,-3.4046,-3.4022,-3.4019,-3.4023,-3.4045,-3.4056,-3.406,-3.4119,-3.4062,-3.4065,-3.4067,-3.4068,-3.4227,-3.4229,0,0,0,0,0,0,-3.3975,-3.398,-3.4046,-3.4048,-3.3993,-3.4013,-3.4016,-3.4034,-3.4045,-3.4045,-3.4024,-3.4021,-3.4052,-3.4056,-3.406,-3.4134,-3.4066,-3.4068,-3.407,-3.4225,-3.4228,-3.423,0,0,0,0,0,0,-3.3973,-3.3981,-3.4045,-3.4013,-3.402,-3.4017,-3.4038,-3.4036,-3.4047,-3.4047,-3.4046,-3.4037,-3.405,-3.4056,-3.4102,-3.4135,-3.407,-3.4073,-3.4222,-3.4226,-3.4229,-3.4283,0,0,0,0,0,0,-3.3971,-3.3981,-3.4006,-3.4014,-3.4022,-3.4087,-3.404,-3.4038,-3.4052,-3.4048,-3.4059,-3.4058,-3.4049,-3.4097,-3.4105,-3.4138,-3.4075,-3.4219,-3.4224,-3.4228,-3.4278,-3.4288,-3.4296,0,0,0,0,0,-3.3968,-3.402,-3.4007,-3.4016,-3.4053,-3.4089,-3.4093,-3.4082,-3.4055,-3.408,-3.4079,-3.4058,-3.4129,-3.4102,-3.411,-3.4145,-3.4217,-3.4223,-3.4228,-3.4274,-3.4286,-3.4296,0,0,0,0,0,0,-3.4017,-3.4021,-3.4007,-3.4064,-3.4076,-3.4082,-3.4112,-3.4095,-3.4115,-3.411,-3.4094,-3.4097,-3.4146,-3.415,-3.4119,-3.4206,-3.4169,-3.4176,-3.4202,-3.4213,-3.4221,-3.422,-3.4078,0,0,0,0,0,-3.4034,-3.4063,-3.4065,-3.4115,-3.4122,-3.4116,-3.4131,-3.4121,-3.4133,-3.4138,-3.4141,-3.4154,-3.4179,-3.4196,-3.4219,-3.4278,-3.4279,-3.4306,-3.4315,-3.4322,-3.4329,-3.4359,-3.437,-3.4247,-3.4247,-3.4247,0,0,-3.4071,-3.4077,-3.4096,-3.4125,-3.4133,-3.4163,-3.4121,-3.4154,-3.4176,-3.4143,-3.4186,-3.4189,-3.4201,-3.4254,-3.4277,-3.4259,-3.4362,-3.4329,-3.4334,-3.4337,-3.4365,-3.4377,-3.4387,-3.4251,-3.425,-3.425,0,0,-3.4153,-3.416,-3.4202,-3.421,-3.4223,-3.4218,-3.4228,-3.4236,-3.4236,-3.4279,-3.4255,-3.4279,-3.4323,-3.4333,-3.4344,-3.4425,-3.4406,-3.4433,-3.448,-3.451,-3.452,-3.4528,-3.4557,-3.4567,-3.444,-3.444,-3.444,0,-3.4197,-3.4241,-3.4226,-3.426,-3.4273,-3.4243,-3.4285,-3.4294,-3.4314,-3.4323,-3.4302,-3.4355,-3.4362,-3.4415,-3.4435,-3.4444,-3.4455,-3.4433,-3.4519,-3.4528,-3.4535,-3.4563,-3.4574,-3.4443,-3.4443,-3.4442,-3.4442,0,-3.4293,-3.4324,-3.4356,-3.4375,-3.4391,-3.4429,-3.4419,-3.4437,-3.4424,-3.4421,-3.4464,-3.4471,-3.4494,-3.4505,-3.4494,-3.4557,-3.4545,-3.4522,-3.4485,-3.4551,-3.4576,-3.4586,-3.4448,-3.4447,-3.4446,-3.4445,0,0,-3.441,-3.4417,-3.443,-3.4437,-3.4447,-3.447,-3.4506,-3.4528,-3.4543,-3.4557,-3.4586,-3.4622,-3.46,-3.4612,-3.4601,-3.4627,-3.469,-3.4601,-3.4601,-3.4617,-3.4759,-3.4777,-3.4789,-3.4677,-3.4679,-3.468,-3.4758,0,-3.449,-3.4552,-3.4538,-3.4599,-3.4626,-3.4597,-3.4627,-3.4637,-3.4634,-3.4656,-3.4653,-3.4679,-3.4649,-3.4655,-3.4679,-3.4678,-3.4719,-3.4672,-3.4704,-3.4705,-3.4702,-3.4802,-3.4822,-3.4895,-3.4768,-3.4769,-3.4771,0,-3.4594,-3.4611,-3.4674,-3.4677,-3.4688,-3.4716,-3.4734,-3.4756,-3.4765,-3.4761,-3.4773,-3.4756,-3.4791,-3.4752,-3.4798,-3.4767,-3.4778,-3.4779,-3.4782,-3.4785,-3.4742,-3.4808,-3.4918,-3.4929,-3.4786,-3.4785,-3.4784,0,-3.4672,-3.471,-3.4752,-3.4759,-3.4765,-3.4785,-3.4788,-3.4795,-3.4808,-3.4824,-3.4832,-3.4851,-3.4862,-3.4877,-3.4865,-3.4839,-3.4913,-3.4874,-3.4911,-3.4911,-3.4929,-3.4928,-3.5042,-3.4936,-3.4936,-3.4936,-3.4935,0,-3.4764,-3.4804,-3.4787,-3.4813,-3.4856,-3.4838,-3.4881,-3.4881,-3.4887,-3.4912,-3.4887,-3.4911,-3.4894,-3.4916,-3.4907,-3.4946,-3.4951,-3.4948,-3.4946,-3.4951,-3.4951,-3.4959,-3.4954,-3.4938,-3.4938,-3.4937,-3.4937,0,-3.4859,-3.4849,-3.4893,-3.4894,-3.4895,-3.4927,-3.4927,-3.4951,-3.4945,-3.4977,-3.4983,-3.4975,-3.4999,-3.4989,-3.5015,-3.5008,-3.5059,-3.5049,-3.5056,-3.5053,-3.5091,-3.5087,-3.5214,-3.523,-3.5113,-3.5114,-3.5115,0,-3.4919,-3.4949,-3.4952,-3.4967,-3.4971,-3.4995,-3.5008,-3.4992,-3.5006,-3.5017,-3.5039,-3.5061,-3.5078,-3.5118,-3.5115,-3.5134,-3.5124,-3.5167,-3.5127,-3.5131,-3.5125,-3.5124,-3.5126,-3.5176,-3.5177,-3.5178,-3.5179,0,-3.5027,-3.5019,-3.5039,-3.5057,-3.5072,-3.5086,-3.5097,-3.511,-3.5093,-3.511,-3.5135,-3.5148,-3.5173,-3.5195,-3.5211,-3.5214,-3.5194,-3.5191,-3.5201,-3.5207,-3.521,-3.5209,-3.5078,-3.5189,-3.5188,-3.5187,-3.5187,-3.5186,-3.5106,-3.513,-3.5136,-3.5158,-3.5164,-3.5174,-3.5196,-3.5192,-3.5212,-3.5231,-3.5219,-3.5248,-3.5254,-3.5273,-3.5278,-3.53,-3.5283,-3.5297,-3.53,-3.5304,-3.5309,-3.5206,-3.5303,-3.5302,-3.5302,-3.5302,-3.5302,0,-3.5212,-3.5213,-3.5234,-3.5249,-3.5266,-3.5244,-3.5254,-3.527,-3.5295,-3.5302,-3.5318,-3.5345,-3.5366,-3.5362,-3.5381,-3.5398,-3.539,-3.5404,-3.5403,-3.5404,-3.5323,-3.5313,-3.5411,-3.5411,-3.5411,-3.5411,-3.5411,-3.5411,-3.5269,-3.5308,-3.5302,-3.5343,-3.5344,-3.5371,-3.5378,-3.5387,-3.5392,-3.5424,-3.544,-3.5437,-3.544,-3.5458,-3.5475,-3.5474,-3.5482,-3.55,-3.5495,-3.542,-3.5409,-3.5399,-3.539,-3.5502,-3.5502,-3.5573,-3.5574,-3.5575]}]]